Change the Weather History Date:

Thursday, December 20, 2012

  Actual Average (KAQP) Record (KAQP)
Temperature  
Mean Temperature 10 °F -  
Max Temperature 19 °F 21 °F 42 °F (2004)
Min Temperature 1 °F 6 °F -14 °F (1996)
Degree Days  
Heating Degree Days 55    
Moisture  
Dew Point 9 °F    
Average Humidity 84    
Maximum Humidity 93    
Minimum Humidity 79    
Precipitation  
Precipitation 0.00 in - - ()
Sea Level Pressure  
Sea Level Pressure 30.09 in    
Wind  
Wind Speed 16 mph (NW)    
Max Wind Speed 26 mph    
Max Gust Speed 32 mph    
Visibility 9 miles    
Events Snow    
Averages and records for this station are not official NWS values.
T = Trace of Precipitation, MM = Missing Value Source: NWS Daily Summary

Daily Weather History Graph

Daily Weather History Graph

Search for Another Location

Airport or City:

Trip Planner

Search our weather history database for the weather conditions in past years. The results will help you decide how hot, cold, wet, or windy it might be!

Date:

Astronomy

Dec. 20, 2012 Rise Set
Actual Time 7:59 AM CST 4:45 PM CST
Civil Twilight 7:25 AM CST 5:19 PM CST
Nautical Twilight 6:48 AM CST 5:56 PM CST
Astronomical Twilight 6:12 AM CST 6:32 PM CST
Moon 12:17 PM CST (12/20) 12:33 AM CST (12/20)
Length of Visible Light 9h 53m
Length of Day
8h 46m
First Quarter, 55% of the Moon is Illuminated
Dec 20
First Quarter
Dec 28
Full
Jan 4
Last Quarter
Jan 11
New
Jan 18
First Quarter

Hourly Weather History & Observations

Time (CST) Temp. Windchill Dew Point Humidity Pressure Visibility Wind Dir Wind Speed Gust Speed Precip Events Conditions
12:14 AM 19.4 °F 7.2 °F 15.8 °F 86% 30.04 in 10.0 mi NNW 11.5 mph - N/A   Overcast
12:33 AM 19.4 °F 6.6 °F 15.8 °F 86% 30.04 in 10.0 mi NNW 12.7 mph - N/A   Overcast
12:54 AM 19.4 °F 7.9 °F 15.8 °F 86% 30.04 in 10.0 mi NW 10.4 mph - N/A   Overcast
1:14 AM 19.4 °F 6.6 °F 15.8 °F 86% 30.03 in 10.0 mi NNW 12.7 mph - N/A   Overcast
1:34 AM 19.4 °F 6.0 °F 15.8 °F 86% 30.02 in 10.0 mi NNW 13.8 mph - N/A   Overcast
1:54 AM 19.4 °F 6.6 °F 15.8 °F 86% 30.03 in 10.0 mi NNW 12.7 mph - N/A   Overcast
2:13 AM 19.4 °F 5.0 °F 15.8 °F 86% 30.03 in 10.0 mi NNW 16.1 mph - N/A   Overcast
2:34 AM 19.4 °F 5.5 °F 15.8 °F 86% 30.03 in 10.0 mi NNW 15.0 mph - N/A   Overcast
2:54 AM 19.4 °F 5.0 °F 15.8 °F 86% 30.03 in 10.0 mi NNW 16.1 mph - N/A   Overcast
3:13 AM 19.4 °F 4.1 °F 15.8 °F 86% 30.03 in 10.0 mi NNW 18.4 mph - N/A   Overcast
3:34 AM 19.4 °F 4.5 °F 15.8 °F 86% 30.03 in 10.0 mi NNW 17.3 mph - N/A   Overcast
3:54 AM 19.4 °F 4.5 °F 15.8 °F 86% 30.03 in 10.0 mi NNW 17.3 mph - N/A   Overcast
4:13 AM 19.4 °F 3.6 °F 15.8 °F 86% 30.03 in 10.0 mi NNW 19.6 mph - N/A   Overcast
4:34 AM 17.6 °F 0.9 °F 15.8 °F 93% 30.02 in 10.0 mi NNW 20.7 mph - N/A   Overcast
4:54 AM 17.6 °F 0.5 °F 15.8 °F 93% 30.02 in 7.0 mi NNW 21.9 mph 26.5 mph N/A   Overcast
5:13 AM 17.6 °F 1.3 °F 14.0 °F 86% 30.02 in 10.0 mi NNW 19.6 mph 24.2 mph N/A   Overcast
5:34 AM 17.6 °F 0.9 °F 14.0 °F 86% 30.02 in 10.0 mi NNW 20.7 mph 25.3 mph N/A   Overcast
5:53 AM 17.6 °F 1.3 °F 14.0 °F 86% 30.03 in 10.0 mi NNW 19.6 mph 26.5 mph N/A   Overcast
6:14 AM 17.6 °F 1.3 °F 14.0 °F 86% 30.04 in 10.0 mi NNW 19.6 mph 26.5 mph N/A   Overcast
6:34 AM 17.6 °F 1.7 °F 12.2 °F 79% 30.04 in 10.0 mi NW 18.4 mph - N/A   Overcast
6:53 AM 15.8 °F -0.2 °F 12.2 °F 86% 30.05 in 10.0 mi NNW 17.3 mph - N/A   Overcast
7:14 AM 15.8 °F -0.6 °F 10.4 °F 79% 30.05 in 10.0 mi NNW 18.4 mph 25.3 mph N/A   Overcast
7:34 AM 14.0 °F -3.0 °F 10.4 °F 86% 30.06 in 10.0 mi NNW 18.4 mph 24.2 mph N/A   Scattered Clouds
7:53 AM 12.2 °F -5.3 °F 8.6 °F 85% 30.06 in 10.0 mi NNW 18.4 mph - N/A   Clear
8:14 AM 12.2 °F -4.3 °F 8.6 °F 85% 30.07 in 10.0 mi NNW 16.1 mph - N/A   Clear
8:34 AM 12.2 °F -5.3 °F 8.6 °F 85% 30.07 in 10.0 mi NNW 18.4 mph 24.2 mph N/A   Clear
8:53 AM 12.2 °F -4.3 °F 8.6 °F 85% 30.07 in 10.0 mi NW 16.1 mph - N/A   Clear
9:14 AM 12.2 °F -3.7 °F 8.6 °F 85% 30.07 in 10.0 mi NW 15.0 mph 23.0 mph N/A   Clear
9:34 AM 12.2 °F -4.8 °F 8.6 °F 85% 30.07 in 10.0 mi NW 17.3 mph - N/A   Clear
9:53 AM 15.8 °F -0.2 °F 10.4 °F 79% 30.08 in 10.0 mi NW 17.3 mph 24.2 mph N/A   Scattered Clouds
10:14 AM 15.8 °F -1.5 °F 12.2 °F 86% 30.09 in 5.0 mi NNW 20.7 mph 26.5 mph N/A   Overcast
10:34 AM 15.8 °F -3.4 °F 10.4 °F 79% 30.09 in 3.0 mi NNW 26.5 mph 29.9 mph N/A Snow Light Snow
10:53 AM 15.8 °F -1.5 °F 10.4 °F 79% 30.09 in 3.0 mi NNW 20.7 mph 28.8 mph N/A Snow Light Snow
11:14 AM 15.8 °F -1.9 °F 10.4 °F 79% 30.08 in 2.5 mi NNW 21.9 mph - N/A Snow Light Snow
11:34 AM 15.8 °F -2.3 °F 10.4 °F 79% 30.08 in 2.0 mi NNW 23.0 mph - N/A Snow Light Snow
11:53 AM 15.8 °F -3.1 °F 10.4 °F 79% 30.07 in 2.0 mi NNW 25.3 mph 32.2 mph N/A Snow Light Snow
12:14 PM 15.8 °F -2.3 °F 10.4 °F 79% 30.07 in 3.0 mi NNW 23.0 mph 26.5 mph N/A Snow Light Snow
12:34 PM 15.8 °F -2.3 °F 10.4 °F 79% 30.07 in 4.0 mi NW 23.0 mph 27.6 mph N/A Snow Light Snow
12:53 PM 14.0 °F -3.9 °F 8.6 °F 79% 30.07 in 4.0 mi NNW 20.7 mph 26.5 mph N/A Snow Light Snow
1:14 PM 15.8 °F -1.5 °F 10.4 °F 79% 30.07 in 4.0 mi NNW 20.7 mph - N/A Snow Light Snow
1:34 PM 14.0 °F -3.0 °F 8.6 °F 79% 30.07 in 3.0 mi NW 18.4 mph - N/A Snow Light Snow
1:53 PM 12.2 °F -5.8 °F 8.6 °F 85% 30.07 in 5.0 mi NW 19.6 mph 24.2 mph N/A Snow Light Snow
2:14 PM 12.2 °F -5.3 °F 8.6 °F 85% 30.07 in 4.0 mi NNW 18.4 mph - N/A Snow Light Snow
2:34 PM 12.2 °F -5.8 °F 6.8 °F 79% 30.08 in 7.0 mi NNW 19.6 mph 25.3 mph N/A   Scattered Clouds
2:53 PM 12.2 °F -4.8 °F 6.8 °F 79% 30.09 in 7.0 mi NW 17.3 mph 23.0 mph N/A   Mostly Cloudy
3:14 PM 10.4 °F -6.6 °F 6.8 °F 85% 30.09 in 10.0 mi NW 16.1 mph 23.0 mph N/A   Scattered Clouds
3:33 PM 10.4 °F -6.0 °F 6.8 °F 85% 30.09 in 10.0 mi NW 15.0 mph - N/A   Clear
3:53 PM 10.4 °F -6.6 °F 6.8 °F 85% 30.09 in 10.0 mi NNW 16.1 mph - N/A   Clear
4:14 PM 10.4 °F -6.0 °F 6.8 °F 85% 30.10 in 10.0 mi NW 15.0 mph - N/A   Clear
4:33 PM 10.4 °F -4.8 °F 5.0 °F 79% 30.10 in 10.0 mi NNW 12.7 mph - N/A   Clear
4:53 PM 10.4 °F -6.0 °F 5.0 °F 79% 30.11 in 10.0 mi NNW 15.0 mph - N/A   Clear
5:14 PM 8.6 °F -7.7 °F 5.0 °F 85% 30.11 in 10.0 mi NNW 13.8 mph - N/A   Clear
5:34 PM 10.4 °F -7.2 °F 5.0 °F 79% 30.11 in 10.0 mi NNW 17.3 mph - N/A   Clear
5:53 PM 10.4 °F -6.6 °F 5.0 °F 79% 30.11 in 10.0 mi NNW 16.1 mph - N/A   Clear
6:14 PM 8.6 °F -9.5 °F 5.0 °F 85% 30.11 in 10.0 mi NNW 17.3 mph - N/A   Clear
6:34 PM 8.6 °F -8.3 °F 5.0 °F 85% 30.12 in 10.0 mi NNW 15.0 mph - N/A   Clear
6:53 PM 8.6 °F -8.3 °F 5.0 °F 85% 30.13 in 10.0 mi NNW 15.0 mph - N/A   Clear
7:14 PM 8.6 °F -7.7 °F 3.2 °F 79% 30.13 in 10.0 mi NNW 13.8 mph - N/A   Clear
7:33 PM 8.6 °F -8.3 °F 3.2 °F 79% 30.13 in 10.0 mi NNW 15.0 mph - N/A   Clear
7:54 PM 8.6 °F -8.3 °F 3.2 °F 79% 30.15 in 10.0 mi NW 15.0 mph - N/A   Clear
8:14 PM 6.8 °F -9.3 °F 3.2 °F 85% 30.15 in 10.0 mi NW 12.7 mph - N/A   Clear
8:33 PM 6.8 °F -8.6 °F 1.4 °F 79% 30.15 in 10.0 mi NNW 11.5 mph - N/A   Clear
8:54 PM 6.8 °F -6.9 °F 1.4 °F 79% 30.16 in 10.0 mi NW 9.2 mph - N/A   Clear
9:13 PM 3.2 °F -13.1 °F -0.4 °F 85% 30.16 in 10.0 mi NW 11.5 mph - N/A   Clear
9:34 PM 5.0 °F -10.0 °F 1.4 °F 85% 30.17 in 10.0 mi NW 10.4 mph - N/A   Clear
9:54 PM 3.2 °F -10.3 °F -0.4 °F 85% 30.18 in 10.0 mi NW 8.1 mph - N/A   Clear
10:13 PM 3.2 °F -10.3 °F -0.4 °F 85% 30.19 in 10.0 mi WNW 8.1 mph - N/A   Clear
10:34 PM 3.2 °F -10.3 °F -0.4 °F 85% 30.19 in 10.0 mi WNW 8.1 mph - N/A   Clear
10:54 PM 3.2 °F -12.2 °F -0.4 °F 85% 30.20 in 10.0 mi NW 10.4 mph - N/A   Clear
11:13 PM 3.2 °F -9.1 °F -0.4 °F 85% 30.20 in 10.0 mi WNW 6.9 mph - N/A   Clear
11:34 PM 1.4 °F -12.5 °F -2.2 °F 85% 30.21 in 10.0 mi WNW 8.1 mph - N/A   Clear
11:54 PM 1.4 °F -14.5 °F -2.2 °F 85% 30.21 in 10.0 mi WNW 10.4 mph - N/A   Clear